TimeCST,TemperatureF,Dew PointF,Humidity,Sea Level PressureIn,VisibilityMPH,Wind Direction,Wind SpeedMPH,Gust SpeedMPH,PrecipitationIn,Events,Conditions,WindDirDegrees,DateUTC
12:14 AM,15.8,12.2,86,30.26,7.0,NW,27.6,33.4,N/A,Snow,Light Snow,320,2012-11-23 06:14:00
12:34 AM,15.8,12.2,86,30.27,7.0,NW,23.0,31.1,N/A,Snow,Light Snow,320,2012-11-23 06:34:00
12:54 AM,15.8,12.2,86,30.28,5.0,NNW,24.2,31.1,N/A,Snow,Light Snow,330,2012-11-23 06:54:00
1:34 AM,15.8,12.2,86,30.30,5.0,NNW,20.7,27.6,N/A,Snow,Light Snow,330,2012-11-23 07:34:00
1:54 AM,15.8,12.2,86,30.30,5.0,NNW,25.3,34.5,N/A,Snow,Light Snow,340,2012-11-23 07:54:00
2:14 AM,15.8,12.2,86,30.32,5.0,NNW,24.2,31.1,N/A,Snow,Light Snow,340,2012-11-23 08:14:00
2:34 AM,15.8,12.2,86,30.33,5.0,NNW,23.0,28.8,N/A,Snow,Light Snow,330,2012-11-23 08:34:00
2:54 AM,15.8,12.2,86,30.34,5.0,NNW,19.6,27.6,N/A,Snow,Light Snow,330,2012-11-23 08:54:00
3:14 AM,15.8,12.2,86,30.34,7.0,NNW,19.6,29.9,N/A,Snow,Light Snow,330,2012-11-23 09:14:00
3:33 AM,15.8,12.2,86,30.35,5.0,NNW,20.7,26.5,N/A,Snow,Light Snow,330,2012-11-23 09:33:00
3:54 AM,17.6,14.0,86,30.36,7.0,NNW,19.6,27.6,N/A,Snow,Light Snow,340,2012-11-23 09:54:00
4:14 AM,17.6,14.0,86,30.37,5.0,NNW,18.4,29.9,N/A,Snow,Light Snow,330,2012-11-23 10:14:00
4:33 AM,17.6,14.0,86,30.38,5.0,NNW,20.7,27.6,N/A,Snow,Light Snow,330,2012-11-23 10:33:00
4:54 AM,15.8,12.2,86,30.38,3.0,NW,20.7,27.6,N/A,Snow,Light Snow,320,2012-11-23 10:54:00
5:14 AM,15.8,12.2,86,30.39,4.0,NNW,21.9,29.9,N/A,Snow,Light Snow,330,2012-11-23 11:14:00
5:33 AM,15.8,12.2,86,30.40,5.0,NNW,20.7,-,N/A,Snow,Light Snow,330,2012-11-23 11:33:00
5:54 AM,15.8,12.2,86,30.40,4.0,NW,18.4,26.5,N/A,Snow,Light Snow,320,2012-11-23 11:54:00
6:13 AM,15.8,10.4,79,30.41,7.0,NW,16.1,24.2,N/A,Snow,Light Snow,320,2012-11-23 12:13:00
6:34 AM,14.0,10.4,86,30.41,7.0,NNW,19.6,25.3,N/A,Snow,Light Snow,330,2012-11-23 12:34:00
6:54 AM,14.0,10.4,86,30.41,10.0,NNW,18.4,25.3,N/A,Snow,Light Snow,330,2012-11-23 12:54:00
7:14 AM,14.0,10.4,86,30.41,10.0,NNW,18.4,-,N/A,Snow,Light Snow,330,2012-11-23 13:14:00
7:34 AM,14.0,10.4,86,30.42,10.0,NNW,19.6,25.3,N/A,Snow,Light Snow,330,2012-11-23 13:34:00
7:54 AM,15.8,10.4,79,30.42,10.0,NNW,17.3,-,N/A,,Overcast,330,2012-11-23 13:54:00
8:14 AM,15.8,10.4,79,30.43,10.0,NNW,17.3,-,N/A,Snow,Light Snow,330,2012-11-23 14:14:00
8:34 AM,15.8,12.2,86,30.43,10.0,NNW,13.8,19.6,N/A,,Overcast,330,2012-11-23 14:34:00
8:54 AM,15.8,12.2,86,30.44,10.0,NNW,15.0,-,N/A,Snow,Light Snow,330,2012-11-23 14:54:00
9:14 AM,15.8,12.2,86,30.44,7.0,NNW,17.3,21.9,N/A,Snow,Light Snow,340,2012-11-23 15:14:00
9:34 AM,15.8,12.2,86,30.45,7.0,NNW,15.0,23.0,N/A,Snow,Light Snow,330,2012-11-23 15:34:00
9:53 AM,15.8,12.2,86,30.46,4.0,NNW,16.1,-,N/A,Snow,Light Snow,330,2012-11-23 15:53:00
10:14 AM,15.8,12.2,86,30.47,5.0,NNW,16.1,21.9,N/A,Snow,Light Snow,330,2012-11-23 16:14:00
10:34 AM,15.8,12.2,86,30.46,7.0,NW,16.1,21.9,N/A,Snow,Light Snow,320,2012-11-23 16:34:00
10:53 AM,15.8,12.2,86,30.47,7.0,NW,16.1,-,N/A,Snow,Light Snow,320,2012-11-23 16:53:00
11:14 AM,15.8,12.2,86,30.46,7.0,NNW,17.3,-,N/A,Snow,Light Snow,330,2012-11-23 17:14:00
11:34 AM,15.8,12.2,86,30.46,7.0,NNW,13.8,17.3,N/A,Snow,Light Snow,330,2012-11-23 17:34:00
11:54 AM,15.8,12.2,86,30.46,5.0,NNW,16.1,-,N/A,Snow,Light Snow,330,2012-11-23 17:54:00
12:14 PM,17.6,12.2,79,30.45,7.0,NNW,15.0,-,N/A,Snow,Light Snow,330,2012-11-23 18:14:00
12:33 PM,15.8,10.4,79,30.44,5.0,NNW,16.1,21.9,N/A,Snow,Light Snow,330,2012-11-23 18:33:00
12:54 PM,15.8,10.4,79,30.44,7.0,NNW,12.7,-,N/A,Snow,Light Snow,330,2012-11-23 18:54:00
1:14 PM,15.8,10.4,79,30.45,5.0,NNW,13.8,-,N/A,Snow,Light Snow,340,2012-11-23 19:14:00
1:34 PM,15.8,12.2,86,30.45,3.0,NW,12.7,-,N/A,Snow,Light Snow,320,2012-11-23 19:34:00
1:54 PM,15.8,12.2,86,30.45,2.5,NW,15.0,-,N/A,Snow,Light Snow,320,2012-11-23 19:54:00
2:14 PM,15.8,12.2,86,30.44,3.0,NNW,13.8,17.3,N/A,Snow,Light Snow,340,2012-11-23 20:14:00
2:34 PM,15.8,10.4,79,30.44,7.0,NNW,15.0,18.4,N/A,Snow,Light Snow,340,2012-11-23 20:34:00
2:54 PM,15.8,10.4,79,30.44,7.0,NNW,16.1,-,N/A,Snow,Light Snow,340,2012-11-23 20:54:00
3:14 PM,15.8,10.4,79,30.45,10.0,NNW,15.0,-,N/A,,Overcast,340,2012-11-23 21:14:00
3:34 PM,15.8,10.4,79,30.45,3.0,NNW,15.0,-,N/A,Snow,Light Snow,340,2012-11-23 21:34:00
3:54 PM,15.8,10.4,79,30.45,7.0,NNW,12.7,-,N/A,Snow,Light Snow,330,2012-11-23 21:54:00
4:14 PM,14.0,10.4,86,30.45,10.0,North,10.4,-,N/A,Snow,Light Snow,350,2012-11-23 22:14:00
4:34 PM,14.0,8.6,79,30.45,10.0,NNW,8.1,-,N/A,Snow,Light Snow,340,2012-11-23 22:34:00
4:54 PM,14.0,8.6,79,30.45,10.0,NNW,9.2,-,N/A,Snow,Light Snow,330,2012-11-23 22:54:00
5:14 PM,14.0,10.4,86,30.45,10.0,NNW,11.5,-,N/A,Snow,Light Snow,340,2012-11-23 23:14:00
5:34 PM,14.0,10.4,86,30.44,5.0,NNW,11.5,-,N/A,Snow,Light Snow,340,2012-11-23 23:34:00
5:54 PM,14.0,8.6,79,30.44,10.0,NNW,10.4,-,N/A,Snow,Light Snow,340,2012-11-23 23:54:00
6:14 PM,12.2,8.6,85,30.44,10.0,NNW,8.1,-,N/A,Snow,Light Snow,330,2012-11-24 00:14:00
6:34 PM,12.2,8.6,85,30.44,10.0,NNW,5.8,-,N/A,,Overcast,330,2012-11-24 00:34:00
6:54 PM,10.4,6.8,85,30.42,10.0,North,6.9,-,N/A,,Mostly Cloudy,350,2012-11-24 00:54:00
7:13 PM,12.2,8.6,85,30.43,10.0,NNW,4.6,-,N/A,,Mostly Cloudy,330,2012-11-24 01:13:00
7:34 PM,10.4,8.6,92,30.42,7.0,NNW,4.6,-,N/A,Snow,Light Snow,330,2012-11-24 01:34:00
7:53 PM,12.2,8.6,85,30.42,7.0,NW,4.6,-,N/A,Snow,Light Snow,310,2012-11-24 01:53:00
8:14 PM,12.2,8.6,85,30.42,10.0,Calm,Calm,-,N/A,Snow,Light Snow,0,2012-11-24 02:14:00
8:34 PM,12.2,8.6,85,30.41,7.0,NW,3.5,-,N/A,Snow,Light Snow,320,2012-11-24 02:34:00
8:53 PM,12.2,8.6,85,30.41,5.0,NW,3.5,-,N/A,Snow,Light Snow,320,2012-11-24 02:53:00
9:14 PM,12.2,8.6,85,30.41,7.0,WNW,5.8,-,N/A,Snow,Light Snow,300,2012-11-24 03:14:00
9:33 PM,12.2,8.6,85,30.40,5.0,NW,3.5,-,N/A,Snow,Light Snow,320,2012-11-24 03:33:00
9:54 PM,10.4,8.6,92,30.39,7.0,Calm,Calm,-,N/A,Snow,Light Snow,0,2012-11-24 03:54:00
10:14 PM,10.4,8.6,92,30.39,5.0,Calm,Calm,-,N/A,Snow,Light Snow,0,2012-11-24 04:14:00
10:33 PM,10.4,8.6,92,30.38,5.0,Calm,Calm,-,N/A,Snow,Light Snow,0,2012-11-24 04:33:00
10:54 PM,10.4,6.8,85,30.37,5.0,Calm,Calm,-,N/A,Snow,Light Snow,0,2012-11-24 04:54:00
11:14 PM,8.6,6.8,92,30.36,4.0,Calm,Calm,-,N/A,Snow,Light Snow,0,2012-11-24 05:14:00
11:33 PM,8.6,6.8,92,30.36,10.0,Calm,Calm,-,N/A,,Scattered Clouds,0,2012-11-24 05:33:00
11:54 PM,6.8,3.2,85,30.36,10.0,Calm,Calm,-,N/A,,Clear,0,2012-11-24 05:54:00